Location: Larrial
(48.2758°N, 4.5331°W)
Time: 04:24:45
(UTC+00:00)

Cosmos 2218 Rocket - Pass Details

Date: 09 April 2020
Orbit: 957 x 1005 km, 82.9° (Epoch: 31 May)

Event Time Altitude Azimuth Distance (km) Brightness Sun altitude
Rises 20:54:16 0° 351° (N) 3,667 7.7 -17.9°
Reaches altitude 10° 20:56:46 10° 352° (N) 2,722 6.9 -18.3°
Maximum altitude 21:03:02 85° 81° (E) 987 3.9 -19.1°
Enters shadow 21:07:06 24° 170° (S) 1,931 5.1 -19.7°
